Wind_Speed
27 27 26 26 26 24 23 22 21 20 21 22 21 20 19 21 22 22 26 18 13 10 12 11 14 15 15 17 14 12 11 14 16 11 7 7 7 5 7 9 10 10 4 10 30
28 28 27 27 28 27 26 25 23 21 19 19 20 20 19 20 22 29 26 22 19 17 17 17 17 17 20 18 13 14 14 19 9 8 5 8 4 7 9 13 9 10 8 23 31
30 30 29 29 29 28 27 26 25 24 20 19 18 18 18 17 18 11 12 14 21 22 17 18 15 17 20 17 21 20 19 17 12 11 9 9 7 5 9 12 15 17 19 28 33
32 31 30 31 31 29 27 26 25 24 22 19 18 18 15 10 6 4 7 9 13 21 18 19 19 19 16 18 22 17 21 22 18 12 8 10 7 9 13 11 8 15 23 30 35
35 35 34 33 31 30 29 26 25 24 22 22 21 17 13 9 22 10 4 4 15 21 21 21 21 21 17 15 18 19 19 21 22 12 15 11 14 12 14 14 6 14 24 30 32
35 35 34 33 32 31 29 27 25 23 23 23 21 18 10 13 15 16 23 14 16 19 19 19 14 19 11 15 18 12 24 17 17 20 18 15 17 8 13 15 12 20 26 30 34
38 38 37 34 31 30 30 27 27 27 23 19 17 16 15 28 14 14 16 20 17 19 17 17 13 15 9 9 15 18 14 18 17 16 13 18 18 13 18 11 18 22 24 28 31
41 40 39 36 33 30 28 29 28 25 20 15 12 9 13 13 19 29 14 16 21 17 13 14 13 16 13 4 9 14 15 17 19 18 19 16 20 21 19 16 18 21 22 28 31
40 39 38 36 33 31 31 30 24 18 14 11 4 6 11 11 15 19 27 16 19 17 13 13 14 14 12 13 11 12 14 20 17 17 19 21 17 19 16 18 17 20 24 29 28
39 38 36 34 31 27 29 30 16 15 10 6 4 7 10 4 8 7 17 21 20 19 17 17 15 12 14 15 17 15 17 10 16 17 18 22 22 18 13 19 19 20 23 26 27
39 38 35 31 28 24 29 15 13 4 9 12 22 21 21 11 7 9 11 26 22 24 18 25 17 22 25 20 15 9 14 14 11 6 13 21 20 23 18 17 18 19 23 26 28
40 38 34 30 23 25 19 14 11 11 18 28 33 32 36 27 14 12 13 24 25 23 23 15 24 22 18 19 16 12 14 12 6 9 7 13 18 20 19 17 18 20 24 26 25
39 37 31 30 19 25 14 18 18 9 8 16 9 9 8 12 16 19 18 30 24 26 28 23 12 21 17 17 19 18 15 14 11 8 13 10 14 20 22 16 15 17 20 24 27
38 32 30 33 12 23 10 25 14 9 5 12 4 5 9 6 8 25 17 23 17 27 21 23 9 17 21 23 19 19 16 14 11 8 11 18 10 20 21 22 19 16 18 22 26
36 28 24 33 25 14 21 17 9 1 6 16 16 9 29 8 17 4 8 20 17 17 22 17 19 17 24 24 21 16 11 15 12 13 6 12 9 10 16 21 22 16 14 19 26
34 27 22 31 22 21 18 8 2 4 4 12 16 22 16 13 12 10 9 6 6 12 18 18 9 21 18 15 19 7 13 10 8 9 11 16 14 12 8 11 19 19 11 15 21
30 24 29 26 26 20 14 5 3 5 19 16 21 21 17 15 16 15 6 10 5 11 14 18 13 10 12 17 20 19 19 9 10 10 10 11 11 2 5 4 5 7 1 7 16
23 23 31 25 22 16 10 2 9 16 16 19 21 11 12 21 15 20 7 10 15 14 10 15 18 16 15 22 17 26 22 9 15 15 13 8 10 8 5 7 8 10 11 10 7
17 21 31 25 20 11 5 11 8 14 19 18 16 9 11 16 13 8 12 13 12 18 9 6 15 9 6 10 17 23 20 15 2 4 11 11 5 7 8 9 12 13 14 14 12
16 15 32 21 12 13 9 9 9 15 13 13 14 13 13 14 10 10 15 16 15 20 13 6 8 4 11 9 12 15 18 12 9 13 11 11 15 10 11 9 10 12 16 16 14
18 9 31 13 17 19 7 6 6 20 17 13 14 10 10 11 10 7 11 5 17 20 13 11 5 7 7 12 20 11 16 16 14 11 14 10 9 8 10 8 10 12 16 17 17
15 5 30 18 20 8 8 6 13 16 19 10 14 10 13 12 11 6 9 9 15 17 9 11 5 6 4 6 3 6 14 21 12 19 12 11 7 11 11 10 10 13 14 17 18
5 6 21 20 8 8 7 12 6 15 17 13 14 12 13 12 3 8 9 11 16 10 11 9 6 4 7 3 3 2 3 4 6 6 20 14 9 13 11 9 11 12 13 15 18
6 4 9 18 14 10 9 10 11 7 9 16 11 11 15 9 8 7 11 9 18 10 13 4 4 5 5 9 8 3 3 5 8 12 14 17 20 16 12 9 9 11 12 14 17
8 5 5 5 10 9 7 8 12 11 10 12 7 15 14 9 12 7 15 16 16 5 15 9 6 4 8 12 11 10 10 7 3 4 8 11 16 16 10 9 10 11 12 14 16
5 6 7 4 8 9 6 8 10 11 8 10 13 16 14 13 10 16 16 13 8 7 14 9 4 8 8 3 8 14 14 9 7 6 4 6 13 8 9 11 10 11 12 14 16
7 6 4 4 7 6 5 7 9 11 4 10 17 17 14 12 16 21 22 21 21 18 13 8 6 5 5 5 9 11 10 11 8 5 6 9 5 12 9 9 10 10 11 12 13
Wind_Direction
5 1 356 351 345 338 332 327 323 320 317 314 309 302 290 289 287 284 273 264 264 246 219 190 187 194 197 213 215 215 235 234 228 219 206 176 207 169 186 165 190 181 159 160 163
6 2 357 351 346 342 338 331 324 318 314 309 306 303 299 294 293 281 277 266 247 233 205 190 189 189 201 215 209 214 226 232 231 222 206 172 201 173 190 180 185 168 139 151 161
5 0 357 352 348 344 339 334 325 319 312 307 302 298 300 303 309 270 258 248 231 216 202 200 201 198 217 215 214 220 237 228 224 235 230 209 217 203 215 206 202 195 170 164 165
6 1 356 350 347 344 341 335 327 320 312 304 300 297 294 296 267 243 242 241 218 194 191 191 195 201 217 213 221 239 233 241 225 199 206 225 232 217 226 227 233 206 185 173 175
2 359 356 350 346 342 339 336 329 321 313 305 299 290 290 253 247 256 232 206 182 175 181 186 194 205 217 224 217 229 235 231 237 217 225 233 228 235 228 233 239 187 179 183 182
2 358 354 349 345 341 339 336 327 320 311 302 293 282 250 250 256 250 236 223 193 185 190 194 206 208 245 229 220 215 234 231 235 227 227 226 232 211 236 223 210 183 184 187 186
1 357 353 349 346 341 339 338 326 319 312 301 286 275 246 242 252 241 226 214 204 197 201 203 209 190 200 214 222 233 236 231 221 226 218 225 237 222 236 203 204 198 195 192 191
359 356 352 349 346 343 340 336 328 318 314 305 285 240 250 272 242 234 218 212 204 201 209 209 196 206 214 176 187 213 231 233 216 217 220 223 234 224 215 201 207 205 199 193 193
356 355 352 348 346 342 343 342 328 318 314 316 310 219 263 278 259 244 215 207 197 195 195 184 185 204 188 201 198 204 226 219 223 206 220 215 230 239 179 203 207 203 200 194 194
355 354 352 348 345 342 345 348 336 321 330 317 280 257 256 297 288 246 207 200 189 184 186 188 194 202 211 205 211 200 223 221 220 200 222 224 234 232 201 214 212 200 200 198 198
356 354 353 351 347 349 356 1 3 262 332 284 280 263 287 313 300 251 203 189 197 190 193 196 202 208 204 211 235 247 219 232 213 147 232 223 228 230 204 219 213 202 198 203 204
356 353 353 355 354 353 9 34 16 309 299 289 274 265 262 268 283 256 201 181 192 198 198 184 220 210 216 209 210 209 209 214 199 199 234 223 226 230 207 209 219 208 204 201 200
356 353 354 357 358 354 4 9 336 324 276 301 281 283 296 226 232 247 211 205 196 202 201 205 210 216 203 198 209 217 222 223 235 194 227 259 234 224 234 223 227 226 213 204 197
355 356 1 356 4 349 347 337 343 330 279 352 18 29 348 273 245 232 223 205 212 211 201 224 193 208 201 211 205 211 218 229 225 223 222 204 237 211 220 218 216 214 211 204 200
354 353 352 357 351 356 328 341 338 312 299 339 2 335 333 242 325 100 221 219 228 209 201 208 209 194 210 209 199 224 196 210 210 218 244 202 237 239 215 215 222 202 205 205 203
356 353 352 354 353 341 342 347 310 260 330 353 6 346 356 6 4 333 192 219 270 196 209 223 211 215 205 212 195 156 178 185 205 218 232 222 217 205 196 239 225 215 179 211 209
1 25 4 360 345 352 348 320 296 12 341 347 342 341 347 0 21 11 82 64 11 219 196 198 190 193 230 187 194 185 171 171 200 203 231 189 200 183 80 21 341 325 20 205 208
11 10 12 6 351 355 359 288 38 355 354 329 338 353 16 358 21 29 39 41 25 353 270 194 197 187 186 204 188 199 194 195 197 207 196 157 216 141 79 85 86 91 86 78 99
17 25 9 11 7 21 3 49 27 350 335 340 340 2 9 358 353 19 45 23 19 9 338 296 213 196 197 206 202 197 207 224 261 346 211 181 116 125 118 98 90 86 77 67 60
18 22 10 16 24 49 67 75 42 2 346 357 12 17 6 8 17 17 11 31 354 352 328 349 267 189 178 215 226 233 205 204 222 189 199 191 179 146 155 111 86 72 69 62 58
31 25 5 14 45 57 60 45 3 6 4 8 7 7 13 12 14 35 15 12 360 342 334 348 262 156 194 211 200 195 214 214 230 235 219 182 190 106 125 91 76 58 49 50 51
33 48 8 45 53 31 34 8 10 8 11 17 13 356 11 14 18 42 13 358 355 352 354 359 309 263 148 59 342 314 230 212 223 208 234 235 123 125 115 89 78 66 52 44 40
33 20 12 41 46 30 32 26 16 12 18 9 13 12 345 19 354 27 355 344 356 7 7 339 356 241 171 202 107 47 35 279 281 293 210 219 145 147 123 101 77 70 58 50 44
20 13 7 40 40 24 10 9 10 18 18 360 11 3 359 347 8 0 358 345 335 327 346 322 303 343 329 1 340 282 345 350 270 226 225 217 135 153 145 116 87 72 62 54 47
30 39 4 0 13 7 15 3 7 8 355 16 354 2 347 334 332 360 340 333 332 350 352 356 280 289 282 291 307 309 303 321 309 320 250 186 162 153 127 112 92 82 70 60 50
40 356 346 321 345 351 17 12 2 354 340 348 345 338 326 314 313 315 326 327 310 318 336 330 276 317 295 233 281 288 286 281 277 272 260 172 121 117 127 114 99 84 73 62 51
23 359 347 315 331 337 4 335 326 330 329 328 325 319 320 340 319 303 296 287 278 286 296 291 301 323 264 324 305 272 252 254 259 272 285 213 146 150 134 116 105 95 77 65 53
Height
1522 1518 1515 1511 1508 1505 1501 1498 1495 1492 1489 1487 1486 1485 1482 1480 1478 1477 1473 1476 1477 1478 1479 1480 1482 1485 1488 1487 1487 1485 1479 1471 1469 1473 1465 1472 1471 1477 1479 1481 1484 1486 1487 1488 1492
1521 1517 1513 1509 1505 1502 1499 1495 1492 1489 1486 1484 1482 1480 1478 1476 1474 1468 1468 1468 1470 1473 1475 1478 1480 1482 1483 1482 1482 1479 1472 1465 1463 1466 1466 1469 1471 1476 1477 1478 1483 1486 1488 1488 1490
1519 1515 1511 1507 1503 1499 1496 1492 1489 1486 1482 1480 1478 1477 1475 1473 1471 1462 1460 1460 1462 1467 1472 1476 1478 1479 1478 1476 1476 1473 1465 1463 1465 1469 1469 1467 1472 1474 1474 1474 1476 1481 1485 1487 1489
1519 1514 1509 1505 1500 1496 1492 1489 1485 1482 1479 1476 1474 1473 1473 1474 1468 1458 1458 1457 1458 1462 1467 1471 1474 1475 1473 1469 1470 1471 1466 1462 1463 1469 1469 1468 1468 1470 1472 1471 1474 1478 1482 1484 1487
1518 1512 1508 1502 1498 1493 1488 1485 1481 1478 1475 1473 1470 1469 1470 1471 1459 1458 1457 1456 1457 1460 1464 1467 1468 1469 1466 1464 1466 1468 1461 1463 1463 1466 1467 1467 1466 1468 1469 1470 1473 1475 1479 1482 1488
1517 1512 1506 1501 1495 1489 1485 1481 1476 1473 1470 1468 1466 1465 1467 1464 1453 1452 1453 1456 1457 1460 1462 1464 1464 1466 1464 1462 1461 1460 1461 1459 1460 1463 1464 1466 1462 1468 1465 1467 1471 1474 1476 1480 1483
1516 1510 1504 1498 1492 1487 1481 1477 1472 1468 1464 1462 1461 1460 1462 1447 1447 1448 1448 1451 1455 1457 1460 1461 1462 1464 1461 1461 1462 1459 1461 1458 1458 1459 1459 1463 1457 1461 1460 1465 1467 1471 1474 1478 1483
1513 1508 1502 1495 1489 1484 1479 1473 1467 1463 1459 1458 1456 1456 1451 1443 1441 1442 1445 1447 1450 1454 1458 1458 1460 1461 1460 1459 1460 1459 1458 1453 1450 1455 1456 1458 1453 1447 1452 1460 1463 1466 1470 1476 1480
1513 1506 1500 1493 1487 1481 1475 1470 1463 1459 1457 1456 1455 1456 1445 1439 1438 1437 1440 1444 1448 1451 1454 1456 1458 1457 1459 1454 1453 1452 1446 1448 1443 1449 1450 1451 1449 1442 1447 1454 1458 1464 1467 1472 1477
1513 1506 1499 1492 1485 1479 1474 1467 1462 1457 1456 1455 1456 1457 1441 1438 1438 1436 1435 1441 1445 1448 1452 1453 1452 1450 1447 1442 1441 1440 1447 1442 1444 1441 1447 1442 1446 1440 1443 1449 1452 1458 1465 1469 1473
1512 1505 1498 1492 1485 1479 1472 1467 1467 1462 1460 1459 1452 1447 1440 1438 1434 1434 1432 1436 1441 1443 1439 1443 1441 1434 1431 1433 1430 1434 1436 1436 1435 1441 1444 1440 1438 1437 1439 1446 1447 1452 1459 1465 1468
1510 1503 1497 1491 1485 1482 1478 1476 1480 1479 1458 1450 1440 1438 1434 1440 1438 1430 1432 1431 1430 1427 1432 1438 1429 1425 1428 1433 1435 1437 1438 1437 1436 1442 1446 1434 1435 1432 1429 1440 1442 1446 1451 1458 1465
1509 1502 1496 1491 1487 1483 1480 1480 1476 1474 1468 1441 1437 1434 1432 1432 1429 1426 1428 1425 1421 1422 1419 1421 1418 1424 1430 1433 1437 1435 1436 1436 1439 1438 1442 1439 1438 1431 1427 1435 1439 1442 1445 1452 1458
1509 1501 1495 1490 1488 1484 1484 1478 1475 1473 1460 1435 1434 1434 1433 1431 1425 1420 1423 1423 1419 1413 1417 1421 1418 1422 1430 1427 1431 1433 1433 1434 1438 1444 1438 1434 1434 1423 1423 1425 1430 1437 1441 1446 1453
1507 1500 1496 1489 1487 1486 1483 1477 1474 1474 1451 1443 1441 1439 1431 1430 1423 1417 1420 1419 1412 1412 1415 1412 1413 1424 1423 1417 1425 1424 1430 1434 1436 1438 1436 1437 1438 1409 1414 1420 1422 1428 1439 1443 1448
1506 1499 1496 1492 1488 1485 1479 1476 1475 1466 1452 1448 1449 1447 1430 1427 1426 1420 1419 1420 1416 1410 1413 1408 1414 1415 1413 1417 1423 1425 1431 1435 1438 1435 1444 1425 1430 1410 1416 1421 1418 1421 1432 1439 1444
1507 1501 1497 1491 1487 1483 1479 1477 1470 1476 1469 1462 1456 1455 1442 1435 1431 1431 1420 1427 1422 1415 1409 1405 1411 1411 1414 1417 1422 1423 1426 1436 1441 1439 1427 1410 1427 1411 1427 1435 1434 1429 1432 1437 1442
1508 1505 1499 1493 1488 1484 1480 1476 1485 1489 1482 1476 1467 1460 1460 1456 1441 1443 1439 1440 1444 1435 1406 1403 1412 1406 1408 1407 1408 1414 1413 1409 1427 1420 1414 1425 1427 1415 1434 1438 1441 1442 1444 1444 1443
1511 1506 1502 1495 1490 1486 1484 1491 1504 1500 1492 1484 1464 1465 1472 1470 1464 1448 1457 1465 1460 1454 1441 1415 1398 1402 1407 1403 1403 1409 1407 1397 1412 1416 1405 1414 1424 1430 1434 1438 1443 1445 1446 1446 1447
1512 1508 1504 1499 1494 1492 1491 1504 1506 1506 1497 1493 1485 1484 1481 1479 1474 1471 1473 1480 1476 1468 1460 1440 1422 1406 1407 1411 1406 1400 1403 1415 1412 1420 1415 1404 1415 1411 1430 1437 1441 1445 1448 1449 1450
1515 1513 1511 1503 1501 1498 1506 1510 1509 1509 1502 1497 1494 1487 1484 1488 1487 1486 1489 1486 1486 1476 1461 1453 1437 1411 1412 1405 1399 1406 1401 1403 1400 1399 1400 1405 1407 1417 1430 1438 1440 1443 1445 1448 1450
1521 1522 1517 1510 1509 1514 1516 1518 1517 1511 1506 1502 1500 1492 1490 1486 1485 1489 1492 1493 1488 1486 1478 1464 1452 1420 1408 1420 1414 1407 1397 1399 1403 1400 1399 1388 1415 1427 1437 1442 1445 1447 1448 1448 1448
1528 1528 1525 1516 1520 1522 1520 1519 1518 1515 1512 1508 1505 1502 1494 1491 1487 1491 1489 1488 1487 1484 1485 1482 1459 1426 1421 1424 1422 1419 1424 1418 1414 1410 1395 1400 1412 1431 1441 1446 1449 1450 1451 1452 1452
1533 1532 1531 1529 1530 1526 1522 1522 1519 1519 1516 1515 1511 1505 1500 1493 1492 1491 1489 1488 1486 1484 1483 1478 1475 1471 1445 1445 1447 1432 1431 1430 1420 1406 1396 1391 1419 1429 1438 1445 1450 1452 1454 1454 1455
1540 1543 1541 1536 1533 1530 1527 1526 1522 1520 1520 1516 1511 1512 1509 1499 1494 1492 1493 1488 1484 1483 1481 1480 1469 1468 1469 1465 1456 1447 1442 1436 1427 1417 1408 1397 1415 1428 1441 1449 1453 1455 1456 1457 1457
1547 1547 1543 1538 1536 1531 1530 1528 1525 1524 1522 1516 1517 1514 1511 1505 1501 1498 1497 1493 1487 1481 1481 1478 1468 1466 1456 1454 1454 1452 1445 1439 1438 1432 1427 1414 1427 1443 1451 1452 1455 1457 1458 1459 1460
1549 1548 1547 1541 1536 1531 1530 1529 1528 1526 1522 1521 1519 1514 1508 1506 1507 1502 1499 1496 1491 1486 1484 1480 1471 1465 1453 1451 1451 1443 1438 1439 1436 1435 1432 1427 1427 1446 1450 1454 1457 1460 1461 1462 1463